Flag for Brazil Weather past 2 weeks in Maceió, Alagoas, Brazil

Now
68 °F

Scattered clouds.


Feels Like: 68 °F
Forecast: 71 / 79 °F
Wind: 2 mph from South

Location: Maceio Aeroporto

Current Time: Jul 28, 2014 at 7:32:07 AM

Latest Report: Jul 28, 2014 at 7:00 AM


Visibility: N/A

Pressure: 30.09 "Hg

Humidity: 88%

Dew point: 64 °F

Location of MaceióLocation

Historic Weather in Maceió — Graph

°F

Maceió temperature yesterday

Maximum temperature yesterday: 73 °F (at 11:00 AM)
Minimum temperature yesterday: 61 °F (at 1:00 AM)
Average temperature yesterday: 67 °F

Past Weeks' High & Low Weather Summary

 TemperatureHumidityPressure
High77 °F (Jul 13, 10:00 AM)100% (Jul 15, 1:00 AM)30.15 "Hg (Jul 15, 1:00 AM)
Low61 °F (Jul 27, 1:00 AM)54% (Jul 21, 12:00 PM)29.98 "Hg (Jul 25, 4:00 PM)
Average69 °F87%30.08 "Hg
* Reported Jul 13 6:00 AM — Jul 28 6:00 AM, Maceió, Weather by CustomWeather, © 2014

Note: Actual official high and low records may vary slightly from our data, if they occured in-between our weather recording intervals... More about our weather records

Advertising

Maceió weather history for previous 24 hours

 ConditionsComfort  
Time TempWeatherWind HumidityBarometerVisibility
6:00 AM
Jul 28
66 °FScattered clouds.3 mph94%30.07 "HgN/A
5:00 AM66 °FPassing clouds.5 mph94%30.07 "HgN/A
4:00 AM66 °FPassing clouds.3 mph94%30.07 "HgN/A
3:00 AM68 °FPassing clouds.5 mph88%30.07 "HgN/A
2:00 AM68 °FPassing clouds.5 mph88%30.07 "HgN/A
1:00 AM68 °FPassing clouds.6 mph94%30.07 "HgN/A
12:00 AM70 °FPassing clouds.7 mph88%30.07 "HgN/A
11:00 PM
Jul 27
68 °FPassing clouds.7 mph94%30.07 "HgN/A
10:00 PM68 °FPassing clouds.7 mph94%30.07 "HgN/A
9:00 PM68 °FPassing clouds.6 mph94%30.07 "HgN/A
8:00 PM68 °FPartly cloudy.3 mph94%30.04 "HgN/A
7:00 PM68 °FPartly cloudy.5 mph100%30.04 "Hg4 mi
6:00 PM68 °FLight rain. Fog.5 mph94%30.04 "Hg2 mi
5:00 PM68 °FBroken clouds.6 mph94%30.01 "HgN/A
4:00 PM68 °FLight rain. Fog.5 mph100%30.01 "Hg1 mi
3:00 PM68 °FLight rain. Fog.9 mph100%30.01 "Hg1 mi
2:00 PM68 °FLight rain. Partly sunny.12 mph94%30.01 "Hg1 mi
1:00 PM68 °FRain. Fog.13 mph100%N/A1 mi
12:00 PM70 °FLight rain. Fog.12 mph88%30.04 "Hg2 mi
11:00 AM73 °FBroken clouds.7 mph78%30.07 "HgN/A
10:00 AM72 °FBroken clouds.6 mph83%30.07 "HgN/A
9:00 AM70 °FBroken clouds.2 mph88%30.07 "HgN/A
8:00 AM66 °FBroken clouds.2 mph94%30.07 "Hg5 mi
7:00 AM68 °FLight rain. Fog.5 mph100%30.04 "Hg2 mi
Weather by CustomWeather, © 2014

See weather overviewHow to use our weather pages